Location: ????????
(60.4333°N, 46.4710°E)
Time: 04:38:09
(UTC+00:00)

Meteor 2-3 Rocket - Pass Details

Date: 25 November 2020
Orbit: 842 x 885 km, 81.2° (Epoch: 19 January)

Event Time Altitude Azimuth Distance (km) Brightness Sun altitude
Rises 12:47:34 0° 342° (NNW) 3,504 6.7 -5.2°
Reaches altitude 10° 12:50:01 10° 341° (NNW) 2,563 6.1 -5.5°
Maximum altitude 12:55:51 74° 258° (WSW) 925 4.1 -6.1°
Drops below altitude 10° 13:01:38 10° 174° (S) 2,542 6.6 -6.7°
Sets 13:04:04 0° 173° (S) 3,473 7.2 -6.9°
